Year,Month,Day,Hour,Minute,Value (Times are PST for temperature in C)
2017,07,07,00,00,15.50
2017,07,07,00,01,15.50
2017,07,07,00,02,15.50
2017,07,07,00,03,15.50
2017,07,07,00,04,15.40
2017,07,07,00,05,15.40
2017,07,07,00,06,15.40
2017,07,07,00,07,15.40
2017,07,07,00,08,15.40
2017,07,07,00,09,15.30
2017,07,07,00,10,15.30
2017,07,07,00,11,15.30
2017,07,07,00,12,15.30
2017,07,07,00,13,15.30
2017,07,07,00,14,15.20
2017,07,07,00,15,15.20
2017,07,07,00,16,15.20
2017,07,07,00,17,15.20
2017,07,07,00,18,15.10
2017,07,07,00,19,15.10
2017,07,07,00,20,15.10
2017,07,07,00,21,15.00
2017,07,07,00,22,15.00
2017,07,07,00,23,14.90
2017,07,07,00,24,14.80
2017,07,07,00,25,14.80
2017,07,07,00,26,14.80
2017,07,07,00,27,14.80
2017,07,07,00,28,14.70
2017,07,07,00,29,14.70
2017,07,07,00,30,14.70
2017,07,07,00,31,14.70
2017,07,07,00,32,14.60
2017,07,07,00,33,14.60
2017,07,07,00,34,14.50
2017,07,07,00,35,14.50
2017,07,07,00,36,14.40
2017,07,07,00,37,14.40
2017,07,07,00,38,14.40
2017,07,07,00,39,14.40
2017,07,07,00,40,14.30
2017,07,07,00,41,14.30
2017,07,07,00,42,14.30
2017,07,07,00,43,14.30
2017,07,07,00,44,14.30
2017,07,07,00,45,14.30
2017,07,07,00,46,14.30
2017,07,07,00,47,14.30
2017,07,07,00,48,14.30
2017,07,07,00,49,14.30
2017,07,07,00,50,14.30
2017,07,07,00,51,14.20
2017,07,07,00,52,14.20
2017,07,07,00,53,14.20
2017,07,07,00,54,14.20
2017,07,07,00,55,14.10
2017,07,07,00,56,14.10
2017,07,07,00,57,14.10
2017,07,07,00,58,14.10
2017,07,07,00,59,14.10
2017,07,07,01,00,14.10
2017,07,07,01,01,14.10
2017,07,07,01,02,14.10
2017,07,07,01,03,14.10
2017,07,07,01,04,14.10
2017,07,07,01,05,14.10
2017,07,07,01,06,14.10
2017,07,07,01,07,14.10
2017,07,07,01,08,14.00
2017,07,07,01,09,14.00
2017,07,07,01,10,14.00
2017,07,07,01,11,14.00
2017,07,07,01,12,13.90
2017,07,07,01,13,13.90
2017,07,07,01,14,13.90
2017,07,07,01,15,13.80
2017,07,07,01,16,13.80
2017,07,07,01,17,13.70
2017,07,07,01,18,13.70
2017,07,07,01,19,13.70
2017,07,07,01,20,13.60
2017,07,07,01,21,13.60
2017,07,07,01,22,13.60
2017,07,07,01,23,13.60
2017,07,07,01,24,13.60
2017,07,07,01,25,13.60
2017,07,07,01,26,13.60
2017,07,07,01,27,13.50
2017,07,07,01,28,13.50
2017,07,07,01,29,13.50
2017,07,07,01,30,13.50
2017,07,07,01,31,13.50
2017,07,07,01,32,13.40
2017,07,07,01,33,13.40
2017,07,07,01,34,13.50
2017,07,07,01,35,13.40
2017,07,07,01,36,13.40
2017,07,07,01,37,13.40
2017,07,07,01,38,13.40
2017,07,07,01,39,13.40
2017,07,07,01,40,13.30
2017,07,07,01,41,13.30
2017,07,07,01,42,13.30
2017,07,07,01,43,13.30
2017,07,07,01,44,13.30
2017,07,07,01,45,13.30
2017,07,07,01,46,13.30
2017,07,07,01,47,13.30
2017,07,07,01,48,13.30
2017,07,07,01,49,13.30
2017,07,07,01,50,13.20
2017,07,07,01,51,13.20
2017,07,07,01,52,13.20
2017,07,07,01,53,13.20
2017,07,07,01,54,13.20
2017,07,07,01,55,13.20
2017,07,07,01,56,13.20
2017,07,07,01,57,13.20
2017,07,07,01,58,13.20
2017,07,07,01,59,13.10
2017,07,07,02,00,13.10
2017,07,07,02,01,13.10
2017,07,07,02,02,13.10
2017,07,07,02,03,13.10
2017,07,07,02,04,13.10
2017,07,07,02,05,13.10
2017,07,07,02,06,13.10
2017,07,07,02,07,13.10
2017,07,07,02,08,13.10
2017,07,07,02,09,13.10
2017,07,07,02,10,13.20
2017,07,07,02,11,13.20
2017,07,07,02,12,13.20
2017,07,07,02,13,13.20
2017,07,07,02,14,13.30
2017,07,07,02,15,13.30
2017,07,07,02,16,13.30
2017,07,07,02,17,13.30
2017,07,07,02,18,13.20
2017,07,07,02,19,13.20
2017,07,07,02,20,13.20
2017,07,07,02,21,13.20
2017,07,07,02,22,13.20
2017,07,07,02,23,13.20
2017,07,07,02,24,13.20
2017,07,07,02,25,13.10
2017,07,07,02,26,13.10
2017,07,07,02,27,13.10
2017,07,07,02,28,13.10
2017,07,07,02,29,13.10
2017,07,07,02,30,13.10
2017,07,07,02,31,13.10
2017,07,07,02,32,13.10
2017,07,07,02,33,13.10
2017,07,07,02,34,13.10
2017,07,07,02,35,13.00
2017,07,07,02,36,13.00
2017,07,07,02,37,13.00
2017,07,07,02,38,13.00
2017,07,07,02,39,12.90
2017,07,07,02,40,12.90
2017,07,07,02,41,12.90
2017,07,07,02,42,12.80
2017,07,07,02,43,12.80
2017,07,07,02,44,12.80
2017,07,07,02,45,12.80
2017,07,07,02,46,12.80
2017,07,07,02,47,12.80
2017,07,07,02,48,12.70
2017,07,07,02,49,12.70
2017,07,07,02,50,12.70
2017,07,07,02,51,12.70
2017,07,07,02,52,12.70
2017,07,07,02,53,12.60
2017,07,07,02,54,12.60
2017,07,07,02,55,12.70
2017,07,07,02,56,12.60
2017,07,07,02,57,12.60
2017,07,07,02,58,12.60
2017,07,07,02,59,12.60
2017,07,07,03,00,12.60
2017,07,07,03,01,12.60
2017,07,07,03,02,12.60
2017,07,07,03,03,12.60
2017,07,07,03,04,12.60
2017,07,07,03,05,12.60
2017,07,07,03,06,12.50
2017,07,07,03,07,12.50
2017,07,07,03,08,12.50
2017,07,07,03,09,12.50
2017,07,07,03,10,12.40
2017,07,07,03,11,12.40
2017,07,07,03,12,12.40
2017,07,07,03,13,12.40
2017,07,07,03,14,12.40
2017,07,07,03,15,12.40
2017,07,07,03,16,12.40
2017,07,07,03,17,12.40
2017,07,07,03,18,12.40
2017,07,07,03,19,12.40
2017,07,07,03,20,12.50
2017,07,07,03,21,12.50
2017,07,07,03,22,12.50
2017,07,07,03,23,12.50
2017,07,07,03,24,12.40
2017,07,07,03,25,12.40
2017,07,07,03,26,12.40
2017,07,07,03,27,12.40
2017,07,07,03,28,12.40
2017,07,07,03,29,12.40
2017,07,07,03,30,12.40
2017,07,07,03,31,12.40
2017,07,07,03,32,12.40
2017,07,07,03,33,12.40
2017,07,07,03,34,12.40
2017,07,07,03,35,12.40
2017,07,07,03,36,12.40
2017,07,07,03,37,12.40
2017,07,07,03,38,12.40
2017,07,07,03,39,12.40
2017,07,07,03,40,12.40
2017,07,07,03,41,12.50
2017,07,07,03,42,12.50
2017,07,07,03,43,12.50
2017,07,07,03,44,12.60
2017,07,07,03,45,12.60
2017,07,07,03,46,12.70
2017,07,07,03,47,12.70
2017,07,07,03,48,12.70
2017,07,07,03,49,12.70
2017,07,07,03,50,12.70
2017,07,07,03,51,12.70
2017,07,07,03,52,12.60
2017,07,07,03,53,12.60
2017,07,07,03,54,12.60
2017,07,07,03,55,12.60
2017,07,07,03,56,12.60
2017,07,07,03,57,12.60
2017,07,07,03,58,12.60
2017,07,07,03,59,12.60
2017,07,07,04,00,12.50
2017,07,07,04,01,12.50
2017,07,07,04,02,12.50
2017,07,07,04,03,12.50
2017,07,07,04,04,12.40
2017,07,07,04,05,12.40
2017,07,07,04,06,12.40
2017,07,07,04,07,12.40
2017,07,07,04,08,12.40
2017,07,07,04,09,12.40
2017,07,07,04,10,12.30
2017,07,07,04,11,12.30
2017,07,07,04,12,12.30
2017,07,07,04,13,12.30
2017,07,07,04,14,12.30
2017,07,07,04,15,12.30
2017,07,07,04,16,12.30
2017,07,07,04,17,12.20
2017,07,07,04,18,12.20
2017,07,07,04,19,12.20
2017,07,07,04,20,12.20
2017,07,07,04,21,12.20
2017,07,07,04,22,12.20
2017,07,07,04,23,12.20
2017,07,07,04,24,12.20
2017,07,07,04,25,12.20
2017,07,07,04,26,12.20
2017,07,07,04,27,12.20
2017,07,07,04,28,12.20
2017,07,07,04,29,12.20
2017,07,07,04,30,12.20
2017,07,07,04,31,12.10
2017,07,07,04,32,12.10
2017,07,07,04,33,12.10
2017,07,07,04,34,12.10
2017,07,07,04,35,12.10
2017,07,07,04,36,12.10
2017,07,07,04,37,12.10
2017,07,07,04,38,12.10
2017,07,07,04,39,12.00
2017,07,07,04,40,12.00
2017,07,07,04,41,12.10
2017,07,07,04,42,12.10
2017,07,07,04,43,12.10
2017,07,07,04,44,12.10
2017,07,07,04,45,12.00
2017,07,07,04,46,12.10
2017,07,07,04,47,12.10
2017,07,07,04,48,12.00
2017,07,07,04,49,12.00
2017,07,07,04,50,12.10
2017,07,07,04,51,12.00
2017,07,07,04,52,12.00
2017,07,07,04,53,12.00
2017,07,07,04,54,12.00
2017,07,07,04,55,12.00
2017,07,07,04,56,12.00
2017,07,07,04,57,11.90
2017,07,07,04,58,11.90
2017,07,07,04,59,11.90
2017,07,07,05,00,11.90
2017,07,07,05,01,11.90
2017,07,07,05,02,11.90
2017,07,07,05,03,11.90
2017,07,07,05,04,11.80
2017,07,07,05,05,11.90
2017,07,07,05,06,11.90
2017,07,07,05,07,11.90
2017,07,07,05,08,11.90
2017,07,07,05,09,11.90
2017,07,07,05,10,11.90
2017,07,07,05,11,11.90
2017,07,07,05,12,11.90
2017,07,07,05,13,11.90
2017,07,07,05,14,11.90
2017,07,07,05,15,11.90
2017,07,07,05,16,11.90
2017,07,07,05,17,11.80
2017,07,07,05,18,11.80
2017,07,07,05,19,11.90
2017,07,07,05,20,11.90
2017,07,07,05,21,11.90
2017,07,07,05,22,11.90
2017,07,07,05,23,11.90
2017,07,07,05,24,11.80
2017,07,07,05,25,11.80
2017,07,07,05,26,11.80
2017,07,07,05,27,11.80
2017,07,07,05,28,11.90
2017,07,07,05,29,11.90
2017,07,07,05,30,11.90
2017,07,07,05,31,11.90
2017,07,07,05,32,12.00
2017,07,07,05,33,12.10
2017,07,07,05,34,12.20
2017,07,07,05,35,12.30
2017,07,07,05,36,12.50
2017,07,07,05,37,12.60
2017,07,07,05,38,12.70
2017,07,07,05,39,12.80
2017,07,07,05,40,12.90
2017,07,07,05,41,12.90
2017,07,07,05,42,12.90
2017,07,07,05,43,12.90
2017,07,07,05,44,12.90
2017,07,07,05,45,13.00
2017,07,07,05,46,13.00
2017,07,07,05,47,13.10
2017,07,07,05,48,13.10
2017,07,07,05,49,13.20
2017,07,07,05,50,13.20
2017,07,07,05,51,13.20
2017,07,07,05,52,13.20
2017,07,07,05,53,13.20
2017,07,07,05,54,13.20
2017,07,07,05,55,13.20
2017,07,07,05,56,13.20
2017,07,07,05,57,13.10
2017,07,07,05,58,13.10
2017,07,07,05,59,13.10
2017,07,07,06,00,13.00
2017,07,07,06,01,13.00
2017,07,07,06,02,12.90
2017,07,07,06,03,12.90
2017,07,07,06,04,12.90
2017,07,07,06,05,12.90
2017,07,07,06,06,12.80
2017,07,07,06,07,12.80
2017,07,07,06,08,12.80
2017,07,07,06,09,12.80
2017,07,07,06,10,12.80
2017,07,07,06,11,12.80
2017,07,07,06,12,12.70
2017,07,07,06,13,12.70
2017,07,07,06,14,12.70
2017,07,07,06,15,12.60
2017,07,07,06,16,12.60
2017,07,07,06,17,12.60
2017,07,07,06,18,12.50
2017,07,07,06,19,12.50
2017,07,07,06,20,12.50
2017,07,07,06,21,12.50
2017,07,07,06,22,12.50
2017,07,07,06,23,12.50
2017,07,07,06,24,12.50
2017,07,07,06,25,12.50
2017,07,07,06,26,12.50
2017,07,07,06,27,12.60
2017,07,07,06,28,12.60
2017,07,07,06,29,12.60
2017,07,07,06,30,12.60
2017,07,07,06,31,12.60
2017,07,07,06,32,12.50
2017,07,07,06,33,12.50
2017,07,07,06,34,12.50
2017,07,07,06,35,12.50
2017,07,07,06,36,12.50
2017,07,07,06,37,12.40
2017,07,07,06,38,12.40
2017,07,07,06,39,12.40
2017,07,07,06,40,12.40
2017,07,07,06,41,12.40
2017,07,07,06,42,12.40
2017,07,07,06,43,12.40
2017,07,07,06,44,12.30
2017,07,07,06,45,12.40
2017,07,07,06,46,12.40
2017,07,07,06,47,12.40
2017,07,07,06,48,12.40
2017,07,07,06,49,12.50
2017,07,07,06,50,12.60
2017,07,07,06,51,12.70
2017,07,07,06,52,12.80
2017,07,07,06,53,12.80
2017,07,07,06,54,12.80
2017,07,07,06,55,12.80
2017,07,07,06,56,12.80
2017,07,07,06,57,12.80
2017,07,07,06,58,12.80
2017,07,07,06,59,12.90
2017,07,07,07,00,12.90
2017,07,07,07,01,13.00
2017,07,07,07,02,13.10
2017,07,07,07,03,13.20
2017,07,07,07,04,13.30
2017,07,07,07,05,13.40
2017,07,07,07,06,13.50
2017,07,07,07,07,13.60
2017,07,07,07,08,13.70
2017,07,07,07,09,13.80
2017,07,07,07,10,13.80
2017,07,07,07,11,13.90
2017,07,07,07,12,14.00
2017,07,07,07,13,14.10
2017,07,07,07,14,14.10
2017,07,07,07,15,14.20
2017,07,07,07,16,14.20
2017,07,07,07,17,14.30
2017,07,07,07,18,14.30
2017,07,07,07,19,14.30
2017,07,07,07,20,14.40
2017,07,07,07,21,14.40
2017,07,07,07,22,14.40
2017,07,07,07,23,14.50
2017,07,07,07,24,14.50
2017,07,07,07,25,14.60
2017,07,07,07,26,14.60
2017,07,07,07,27,14.60
2017,07,07,07,28,14.70
2017,07,07,07,29,14.70
2017,07,07,07,30,14.80
2017,07,07,07,31,14.80
2017,07,07,07,32,14.80
2017,07,07,07,33,14.80
2017,07,07,07,34,14.80
2017,07,07,07,35,14.80
2017,07,07,07,36,14.80
2017,07,07,07,37,14.80
2017,07,07,07,38,14.80
2017,07,07,07,39,14.80
2017,07,07,07,40,14.90
2017,07,07,07,41,14.90
2017,07,07,07,42,15.00
2017,07,07,07,43,15.10
2017,07,07,07,44,15.20
2017,07,07,07,45,15.30
2017,07,07,07,46,15.30
2017,07,07,07,47,15.40
2017,07,07,07,48,15.50
2017,07,07,07,49,15.60
2017,07,07,07,50,15.60
2017,07,07,07,51,15.70
2017,07,07,07,52,15.70
2017,07,07,07,53,15.80
2017,07,07,07,54,15.80
2017,07,07,07,55,15.90
2017,07,07,07,56,15.90
2017,07,07,07,57,15.90
2017,07,07,07,58,15.90
2017,07,07,07,59,16.00
2017,07,07,08,00,16.00
2017,07,07,08,01,16.00
2017,07,07,08,02,16.10
2017,07,07,08,03,16.10
2017,07,07,08,04,16.10
2017,07,07,08,05,16.10
2017,07,07,08,06,16.20
2017,07,07,08,07,16.20
2017,07,07,08,08,16.20
2017,07,07,08,09,16.30
2017,07,07,08,10,16.30
2017,07,07,08,11,16.40
2017,07,07,08,12,16.50
2017,07,07,08,13,16.50
2017,07,07,08,14,16.60
2017,07,07,08,15,16.60
2017,07,07,08,16,16.60
2017,07,07,08,17,16.70
2017,07,07,08,18,16.70
2017,07,07,08,19,16.70
2017,07,07,08,20,16.70
2017,07,07,08,21,16.60
2017,07,07,08,22,16.60
2017,07,07,08,23,16.60
2017,07,07,08,24,16.60
2017,07,07,08,25,16.50
2017,07,07,08,26,16.50
2017,07,07,08,27,16.40
2017,07,07,08,28,16.40
2017,07,07,08,29,16.40
2017,07,07,08,30,16.40
2017,07,07,08,31,16.40
2017,07,07,08,32,16.40
2017,07,07,08,33,16.40
2017,07,07,08,34,16.40
2017,07,07,08,35,16.50
2017,07,07,08,36,16.50
2017,07,07,08,37,16.50
2017,07,07,08,38,16.50
2017,07,07,08,39,16.60
2017,07,07,08,40,16.60
2017,07,07,08,41,16.60
2017,07,07,08,42,16.60
2017,07,07,08,43,16.60
2017,07,07,08,44,16.60
2017,07,07,08,45,16.70
2017,07,07,08,46,16.70
2017,07,07,08,47,16.80
2017,07,07,08,48,16.80
2017,07,07,08,49,16.90
2017,07,07,08,50,17.00
2017,07,07,08,51,17.00
2017,07,07,08,52,17.10
2017,07,07,08,53,17.10
2017,07,07,08,54,17.20
2017,07,07,08,55,17.30
2017,07,07,08,56,17.30
2017,07,07,08,57,17.40
2017,07,07,08,58,17.40
2017,07,07,08,59,17.40
2017,07,07,09,00,17.50
2017,07,07,09,01,17.50
2017,07,07,09,02,17.50
2017,07,07,09,03,17.60
2017,07,07,09,04,17.70
2017,07,07,09,05,17.70
2017,07,07,09,06,17.80
2017,07,07,09,07,17.80
2017,07,07,09,08,17.90
2017,07,07,09,09,17.90
2017,07,07,09,10,17.90
2017,07,07,09,11,17.90
2017,07,07,09,12,18.00
2017,07,07,09,13,18.00
2017,07,07,09,14,18.00
2017,07,07,09,15,18.10
2017,07,07,09,16,18.10
2017,07,07,09,17,18.10
2017,07,07,09,18,18.10
2017,07,07,09,19,18.20
2017,07,07,09,20,18.20
2017,07,07,09,21,18.10
2017,07,07,09,22,18.10
2017,07,07,09,23,18.10
2017,07,07,09,24,18.20
2017,07,07,09,25,18.30
2017,07,07,09,26,18.30
2017,07,07,09,27,18.40
2017,07,07,09,28,18.50
2017,07,07,09,29,18.50
2017,07,07,09,30,18.60
2017,07,07,09,31,18.60
2017,07,07,09,32,18.60
2017,07,07,09,33,18.60
2017,07,07,09,34,18.70
2017,07,07,09,35,18.70
2017,07,07,09,36,18.70
2017,07,07,09,37,18.70
2017,07,07,09,38,18.80
2017,07,07,09,39,18.90
2017,07,07,09,40,18.90
2017,07,07,09,41,19.00
2017,07,07,09,42,19.10
2017,07,07,09,43,19.10
2017,07,07,09,44,19.10
2017,07,07,09,45,19.20
2017,07,07,09,46,19.20
2017,07,07,09,47,19.20
2017,07,07,09,48,19.30
2017,07,07,09,49,19.30
2017,07,07,09,50,19.30
2017,07,07,09,51,19.30
2017,07,07,09,52,19.30
2017,07,07,09,53,19.40
2017,07,07,09,54,19.40
2017,07,07,09,55,19.40
2017,07,07,09,56,19.40
2017,07,07,09,57,19.40
2017,07,07,09,58,19.30
2017,07,07,09,59,19.30
2017,07,07,10,00,19.30
2017,07,07,10,01,19.30
2017,07,07,10,02,19.30
2017,07,07,10,03,19.30
2017,07,07,10,04,19.30
2017,07,07,10,05,19.30
2017,07,07,10,06,19.30
2017,07,07,10,07,19.40
2017,07,07,10,08,19.40
2017,07,07,10,09,19.40
2017,07,07,10,10,19.40
2017,07,07,10,11,19.40
2017,07,07,10,12,19.40
2017,07,07,10,13,19.40
2017,07,07,10,14,19.40
2017,07,07,10,15,19.40
2017,07,07,10,16,19.50
2017,07,07,10,17,19.50
2017,07,07,10,18,19.60
2017,07,07,10,19,19.60
2017,07,07,10,20,19.70
2017,07,07,10,21,19.80
2017,07,07,10,22,19.80
2017,07,07,10,23,19.90
2017,07,07,10,24,20.00
2017,07,07,10,25,20.00
2017,07,07,10,26,20.10
2017,07,07,10,27,20.00
2017,07,07,10,28,19.90
2017,07,07,10,29,19.90
2017,07,07,10,30,19.90
2017,07,07,10,31,19.90
2017,07,07,10,32,19.80
2017,07,07,10,33,19.80
2017,07,07,10,34,19.80
2017,07,07,10,35,19.80
2017,07,07,10,36,19.90
2017,07,07,10,37,19.90
2017,07,07,10,38,19.90
2017,07,07,10,39,20.00
2017,07,07,10,40,20.00
2017,07,07,10,41,20.00
2017,07,07,10,42,20.00
2017,07,07,10,43,20.00
2017,07,07,10,44,20.00
2017,07,07,10,45,19.90
2017,07,07,10,46,19.90
2017,07,07,10,47,19.80
2017,07,07,10,48,19.80
2017,07,07,10,49,19.80
2017,07,07,10,50,19.80
2017,07,07,10,51,19.80
2017,07,07,10,52,19.90
2017,07,07,10,53,19.90
2017,07,07,10,54,19.90
2017,07,07,10,55,19.90
2017,07,07,10,56,19.80
2017,07,07,10,57,19.80
2017,07,07,10,58,19.80
2017,07,07,10,59,19.80
2017,07,07,11,00,19.80
2017,07,07,11,01,19.80
2017,07,07,11,02,19.80
2017,07,07,11,03,19.70
2017,07,07,11,04,19.60
2017,07,07,11,05,19.50
2017,07,07,11,06,19.60
2017,07,07,11,07,19.50
2017,07,07,11,08,19.50
2017,07,07,11,09,19.40
2017,07,07,11,10,19.40
2017,07,07,11,11,19.40
2017,07,07,11,12,19.30
2017,07,07,11,13,19.30
2017,07,07,11,14,19.30
2017,07,07,11,15,19.40
2017,07,07,11,16,19.40
2017,07,07,11,17,19.40
2017,07,07,11,18,19.50
2017,07,07,11,19,19.60
2017,07,07,11,20,19.60
2017,07,07,11,21,19.70
2017,07,07,11,22,19.60
2017,07,07,11,23,19.50
2017,07,07,11,24,19.40
2017,07,07,11,25,19.30
2017,07,07,11,26,19.30
2017,07,07,11,27,19.20
2017,07,07,11,28,19.30
2017,07,07,11,29,19.30
2017,07,07,11,30,19.40
2017,07,07,11,31,19.50
2017,07,07,11,32,19.50
2017,07,07,11,33,19.60
2017,07,07,11,34,19.70
2017,07,07,11,35,19.70
2017,07,07,11,36,19.80
2017,07,07,11,37,19.80
2017,07,07,11,38,19.80
2017,07,07,11,39,19.90
2017,07,07,11,40,19.90
2017,07,07,11,41,19.90
2017,07,07,11,42,19.80
2017,07,07,11,43,19.80
2017,07,07,11,44,19.80
2017,07,07,11,45,19.80
2017,07,07,11,46,19.90
2017,07,07,11,47,20.00
2017,07,07,11,48,19.90
2017,07,07,11,49,20.00
2017,07,07,11,50,20.00
2017,07,07,11,51,20.10
2017,07,07,11,52,20.10
2017,07,07,11,53,20.20
2017,07,07,11,54,20.20
2017,07,07,11,55,20.20
2017,07,07,11,56,20.20
2017,07,07,11,57,20.20
2017,07,07,11,58,20.20
2017,07,07,11,59,20.10
2017,07,07,12,00,20.10
2017,07,07,12,01,20.20
2017,07,07,12,02,20.20
2017,07,07,12,03,20.30
2017,07,07,12,04,20.30
2017,07,07,12,05,20.40
2017,07,07,12,06,20.40
2017,07,07,12,07,20.40
2017,07,07,12,08,20.50
2017,07,07,12,09,20.50
2017,07,07,12,10,20.50
2017,07,07,12,11,20.50
2017,07,07,12,12,20.60
2017,07,07,12,13,20.70
2017,07,07,12,14,20.70
2017,07,07,12,15,20.70
2017,07,07,12,16,20.80
2017,07,07,12,17,20.80
2017,07,07,12,18,20.80
2017,07,07,12,19,20.80
2017,07,07,12,20,20.80
2017,07,07,12,21,20.70
2017,07,07,12,22,20.80
2017,07,07,12,23,20.80
2017,07,07,12,24,20.90
2017,07,07,12,25,20.90
2017,07,07,12,26,20.80
2017,07,07,12,27,20.70
2017,07,07,12,28,20.80
2017,07,07,12,29,20.90
2017,07,07,12,30,20.90
2017,07,07,12,31,21.00
2017,07,07,12,32,20.90
2017,07,07,12,33,20.80
2017,07,07,12,34,20.80
2017,07,07,12,35,20.80
2017,07,07,12,36,20.80
2017,07,07,12,37,20.70
2017,07,07,12,38,20.70
2017,07,07,12,39,20.70
2017,07,07,12,40,20.80
2017,07,07,12,41,20.70
2017,07,07,12,42,20.80
2017,07,07,12,43,20.80
2017,07,07,12,44,20.80
2017,07,07,12,45,20.80
2017,07,07,12,46,20.80
2017,07,07,12,47,20.70
2017,07,07,12,48,20.80
2017,07,07,12,49,20.80
2017,07,07,12,50,20.80
2017,07,07,12,51,20.80
2017,07,07,12,52,20.80
2017,07,07,12,53,20.80
2017,07,07,12,54,20.80
2017,07,07,12,55,20.80
2017,07,07,12,56,20.80
2017,07,07,12,57,20.80
2017,07,07,12,58,20.80
2017,07,07,12,59,20.90
2017,07,07,13,00,20.90
2017,07,07,13,01,20.90
2017,07,07,13,02,21.00
2017,07,07,13,03,21.10
2017,07,07,13,04,21.10
2017,07,07,13,05,21.10
2017,07,07,13,06,21.10
2017,07,07,13,07,21.20
2017,07,07,13,08,21.20
2017,07,07,13,09,21.30
2017,07,07,13,10,21.30
2017,07,07,13,11,21.20
2017,07,07,13,12,21.10
2017,07,07,13,13,21.00
2017,07,07,13,14,21.00
2017,07,07,13,15,20.90
2017,07,07,13,16,20.80
2017,07,07,13,17,20.60
2017,07,07,13,18,20.60
2017,07,07,13,19,20.50
2017,07,07,13,20,20.50
2017,07,07,13,21,20.60
2017,07,07,13,22,20.70
2017,07,07,13,23,20.90
2017,07,07,13,24,21.00
2017,07,07,13,25,21.10
2017,07,07,13,26,21.20
2017,07,07,13,27,21.30
2017,07,07,13,28,21.30
2017,07,07,13,29,21.30
2017,07,07,13,30,21.40
2017,07,07,13,31,21.50
2017,07,07,13,32,21.60
2017,07,07,13,33,21.70
2017,07,07,13,34,21.80
2017,07,07,13,35,21.90
2017,07,07,13,36,21.90
2017,07,07,13,37,22.00
2017,07,07,13,38,22.00
2017,07,07,13,39,22.00
2017,07,07,13,40,21.90
2017,07,07,13,41,21.90
2017,07,07,13,42,22.00
2017,07,07,13,43,22.00
2017,07,07,13,44,22.10
2017,07,07,13,45,22.00
2017,07,07,13,46,22.00
2017,07,07,13,47,21.90
2017,07,07,13,48,21.90
2017,07,07,13,49,21.90
2017,07,07,13,50,22.00
2017,07,07,13,51,22.10
2017,07,07,13,52,22.10
2017,07,07,13,53,22.10
2017,07,07,13,54,22.10
2017,07,07,13,55,22.10
2017,07,07,13,56,22.10
2017,07,07,13,57,22.10
2017,07,07,13,58,22.10
2017,07,07,13,59,22.20
2017,07,07,14,00,22.20
2017,07,07,14,01,22.20
2017,07,07,14,02,22.30
2017,07,07,14,03,22.30
2017,07,07,14,04,22.30
2017,07,07,14,05,22.40
2017,07,07,14,06,22.50
2017,07,07,14,07,22.50
2017,07,07,14,08,22.40
2017,07,07,14,09,22.40
2017,07,07,14,10,22.30
2017,07,07,14,11,22.20
2017,07,07,14,12,22.20
2017,07,07,14,13,22.20
2017,07,07,14,14,22.30
2017,07,07,14,15,22.30
2017,07,07,14,16,22.30
2017,07,07,14,17,22.30
2017,07,07,14,18,22.40
2017,07,07,14,19,22.50
2017,07,07,14,20,22.60
2017,07,07,14,21,22.60
2017,07,07,14,22,22.60
2017,07,07,14,23,22.50
2017,07,07,14,24,22.40
2017,07,07,14,25,22.30
2017,07,07,14,26,22.20
2017,07,07,14,27,22.20
2017,07,07,14,28,22.10
2017,07,07,14,29,22.10
2017,07,07,14,30,22.20
2017,07,07,14,31,22.30
2017,07,07,14,32,22.40
2017,07,07,14,33,22.50
2017,07,07,14,34,22.60
2017,07,07,14,35,22.70
2017,07,07,14,36,22.70
2017,07,07,14,37,22.70
2017,07,07,14,38,22.70
2017,07,07,14,39,22.80
2017,07,07,14,40,22.80
2017,07,07,14,41,22.80
2017,07,07,14,42,22.80
2017,07,07,14,43,22.80
2017,07,07,14,44,22.70
2017,07,07,14,45,22.70
2017,07,07,14,46,22.70
2017,07,07,14,47,22.60
2017,07,07,14,48,22.50
2017,07,07,14,49,22.50
2017,07,07,14,50,22.50
2017,07,07,14,51,22.50
2017,07,07,14,52,22.60
2017,07,07,14,53,22.70
2017,07,07,14,54,22.60
2017,07,07,14,55,22.50
2017,07,07,14,56,22.40
2017,07,07,14,57,22.40
2017,07,07,14,58,22.40
2017,07,07,14,59,22.50
2017,07,07,15,00,22.60
2017,07,07,15,01,22.70
2017,07,07,15,02,22.60
2017,07,07,15,03,22.60
2017,07,07,15,04,22.60
2017,07,07,15,05,22.60
2017,07,07,15,06,22.70
2017,07,07,15,07,22.70
2017,07,07,15,08,22.80
2017,07,07,15,09,22.90
2017,07,07,15,10,22.90
2017,07,07,15,11,23.00
2017,07,07,15,12,23.00
2017,07,07,15,13,23.00
2017,07,07,15,14,23.00
2017,07,07,15,15,23.00
2017,07,07,15,16,22.90
2017,07,07,15,17,22.90
2017,07,07,15,18,22.80
2017,07,07,15,19,22.80
2017,07,07,15,20,22.90
2017,07,07,15,21,22.80
2017,07,07,15,22,22.80
2017,07,07,15,23,22.80
2017,07,07,15,24,22.80
2017,07,07,15,25,22.80
2017,07,07,15,26,22.90
2017,07,07,15,27,22.90
2017,07,07,15,28,23.00
2017,07,07,15,29,23.10
2017,07,07,15,30,23.20
2017,07,07,15,31,23.20
2017,07,07,15,32,23.30
2017,07,07,15,33,23.20
2017,07,07,15,34,23.20
2017,07,07,15,35,23.20
2017,07,07,15,36,23.20
2017,07,07,15,37,23.30
2017,07,07,15,38,23.40
2017,07,07,15,39,23.40
2017,07,07,15,40,23.30
2017,07,07,15,41,23.30
2017,07,07,15,42,23.20
2017,07,07,15,43,23.20
2017,07,07,15,44,23.20
2017,07,07,15,45,23.20
2017,07,07,15,46,23.30
2017,07,07,15,47,23.30
2017,07,07,15,48,23.30
2017,07,07,15,49,23.30
2017,07,07,15,50,23.20
2017,07,07,15,51,23.20
2017,07,07,15,52,23.20
2017,07,07,15,53,23.30
2017,07,07,15,54,23.40
2017,07,07,15,55,23.40
2017,07,07,15,56,23.50
2017,07,07,15,57,23.50
2017,07,07,15,58,23.40
2017,07,07,15,59,23.20
2017,07,07,16,00,23.20
2017,07,07,16,01,23.10
2017,07,07,16,02,23.10
2017,07,07,16,03,23.20
2017,07,07,16,04,23.20
2017,07,07,16,05,23.20
2017,07,07,16,06,23.20
2017,07,07,16,07,23.10
2017,07,07,16,08,23.20
2017,07,07,16,09,23.20
2017,07,07,16,10,23.20
2017,07,07,16,11,23.30
2017,07,07,16,12,23.30
2017,07,07,16,13,23.30
2017,07,07,16,14,23.20
2017,07,07,16,15,23.20
2017,07,07,16,16,23.30
2017,07,07,16,17,23.20
2017,07,07,16,18,23.20
2017,07,07,16,19,23.10
2017,07,07,16,20,23.10
2017,07,07,16,21,23.10
2017,07,07,16,22,23.20
2017,07,07,16,23,23.20
2017,07,07,16,24,23.20
2017,07,07,16,25,23.30
2017,07,07,16,26,23.30
2017,07,07,16,27,23.30
2017,07,07,16,28,23.20
2017,07,07,16,29,23.20
2017,07,07,16,30,23.10
2017,07,07,16,31,23.10
2017,07,07,16,32,23.10
2017,07,07,16,33,23.10
2017,07,07,16,34,23.10
2017,07,07,16,35,23.10
2017,07,07,16,36,23.10
2017,07,07,16,37,23.00
2017,07,07,16,38,23.00
2017,07,07,16,39,22.90
2017,07,07,16,40,22.90
2017,07,07,16,41,22.90
2017,07,07,16,42,22.90
2017,07,07,16,43,22.80
2017,07,07,16,44,22.70
2017,07,07,16,45,22.60
2017,07,07,16,46,22.60
2017,07,07,16,47,22.60
2017,07,07,16,48,22.50
2017,07,07,16,49,22.40
2017,07,07,16,50,22.40
2017,07,07,16,51,22.50
2017,07,07,16,52,22.50
2017,07,07,16,53,22.50
2017,07,07,16,54,22.40
2017,07,07,16,55,22.40
2017,07,07,16,56,22.40
2017,07,07,16,57,22.40
2017,07,07,16,58,22.40
2017,07,07,16,59,22.40
2017,07,07,17,00,22.40
2017,07,07,17,01,22.40
2017,07,07,17,02,22.40
2017,07,07,17,03,22.40
2017,07,07,17,04,22.40
2017,07,07,17,05,22.40
2017,07,07,17,06,22.40
2017,07,07,17,07,22.40
2017,07,07,17,08,22.40
2017,07,07,17,09,22.40
2017,07,07,17,10,22.40
2017,07,07,17,11,22.40
2017,07,07,17,12,22.40
2017,07,07,17,13,22.40
2017,07,07,17,14,22.40
2017,07,07,17,15,22.40
2017,07,07,17,16,22.40
2017,07,07,17,17,22.30
2017,07,07,17,18,22.30
2017,07,07,17,19,22.30